Flag for U.S.A. Weather past 2 weeks in Santa Rosa, California, U.S.A.

Now
58 °F

Clear.


Feels Like: 58 °F
Forecast: 55 / 87 °F
Wind: No wind

Location: Santa Rosa Sonoma County Airport

Current Time: Jul 24, 2014 at 3:57:26 AM

Latest Report: Jul 24, 2014 at 2:53 AM


Visibility: 10 mi

Pressure: 29.98 "Hg

Humidity: 87%

Dew point: 54 °F

Location of Santa RosaLocation

Historic Weather in Santa Rosa — Graph

°F

Santa Rosa temperature yesterday

Maximum temperature yesterday: 80 °F (at 2:53 PM)
Minimum temperature yesterday: 60 °F (at 1:53 AM)
Average temperature yesterday: 70 °F

Past Weeks' High & Low Weather Summary

 TemperatureHumidityPressure
High93 °F (Jul 14, 12:53 PM)97% (Jul 10, 2:53 AM)30.11 "Hg (Jul 10, 2:53 AM)
Low53 °F (Jul 14, 5:53 AM)24% (Jul 14, 12:53 PM)29.81 "Hg (Jul 14, 4:53 AM)
Average65 °F74%29.95 "Hg
* Reported Jul 9 5:53 AM — Jul 24 2:53 AM, Santa Rosa, Weather by CustomWeather, © 2014

Note: Actual official high and low records may vary slightly from our data, if they occured in-between our weather recording intervals... More about our weather records

Advertising

Santa Rosa weather history for previous 24 hours

 ConditionsComfort  
Time TempWeatherWind HumidityBarometerVisibility
2:53 AM
Jul 24
58 °FClear.No wind87%29.98 "Hg10 mi
1:53 AM59 °FClear.3 mph87%29.99 "Hg10 mi
12:53 AM60 °FClear.3 mph83%30.00 "Hg10 mi
11:53 PM
Jul 23
62 °FClear.3 mph80%30.00 "Hg10 mi
10:53 PM65 °FClear.No wind76%30.00 "Hg10 mi
9:53 PM67 °FClear.No wind68%30.00 "Hg10 mi
8:53 PM70 °FSunny.5 mph61%29.99 "Hg10 mi
7:53 PM76 °FSunny.6 mph54%29.98 "Hg10 mi
6:53 PM79 °FSunny.7 mph50%29.99 "Hg10 mi
5:53 PM80 °FSunny.7 mph51%30.00 "Hg10 mi
4:53 PM79 °FPassing clouds.10 mph52%30.02 "Hg10 mi
3:53 PM78 °FPassing clouds.9 mph54%30.03 "Hg10 mi
2:53 PM80 °FPassing clouds.12 mph51%30.05 "Hg10 mi
1:53 PM78 °FScattered clouds.No wind48%30.06 "Hg10 mi
12:53 PM78 °FScattered clouds.6 mph46%30.08 "Hg10 mi
11:53 AM74 °FScattered clouds.5 mph56%30.10 "Hg10 mi
10:53 AM72 °FScattered clouds.6 mph57%30.11 "Hg10 mi
9:53 AM71 °FScattered clouds.No wind59%30.11 "Hg10 mi
8:53 AM65 °FOvercast.No wind76%30.11 "Hg10 mi
7:53 AM64 °FOvercast.No wind78%30.10 "Hg10 mi
6:53 AM62 °FOvercast.No wind83%30.09 "Hg10 mi
5:53 AM61 °FOvercast.No wind87%30.08 "Hg10 mi
4:53 AM61 °FOvercast.No wind87%30.06 "Hg10 mi
3:53 AM61 °FOvercast.No wind87%30.06 "Hg10 mi
Weather by CustomWeather, © 2014

See weather overviewHow to use our weather pages